{"data":{"norad_id":43815,"epoch":"2026-05-25T04:31:58.213344Z","epoch_age_seconds":51926,"freshness":"FRESH","line1":"1 43815U 18099BK  26145.18886821  .00003358  00000+0  12858-3 0  9993","line2":"2 43815  97.3803 221.4436 0016108  29.9662 354.0412 15.27129639410228","mean_motion":15.27129639,"eccentricity":0.0016108,"inclination_deg":97.3803,"raan_deg":221.4436,"arg_perigee_deg":29.9662,"mean_anomaly_deg":354.0412,"bstar":0.00012858,"rev_number":41022,"period_min":94.294548624107,"perigee_km":473.34379896128,"apogee_km":495.45214162157,"semimajor_km":6862.5349702914,"source":"CELESTRAK","updated_at":"2026-05-25T13:37:55.901750Z"}}